EW0758 Weather Reports


Display with metric or nautical units.
time (UTC)temp
F
wind
direction
speed
MPH
gust
MPH
rain 1hr
in
rain 24hr
in
rain mn
in
humidity
%
barometer
mb
20260505080723 92 261 15.0 23.0 0.00 0.00 0.00 70 1007.0
20260505080645 93 351 8.0 25.0 0.00 0.00 0.00 68 1007.2
20260505075639 93 301 10.0 25.0 0.00 0.00 0.00 68 1006.8
20260505075136 93 328 15.0 17.0 0.00 0.00 0.00 68 1006.8
20260505074629 92 315 8.0 20.0 0.00 0.00 0.00 68 1006.8
20260505074117 92 348 6.0 20.0 0.00 0.00 0.00 68 1006.9
20260505073801 92 336 7.0 15.0 0.00 0.00 0.00 68 1006.9
20260505072551 91 30 4.0 15.0 0.00 0.00 0.00 70 1007.1
20260505072034 90 9 3.0 13.0 0.00 0.00 0.00 72 1007.1
20260505071533 89 325 6.0 13.0 0.00 0.00 0.00 73 1007.3
20260505071414 90 335 1.0 13.0 0.00 0.00 0.00 73 1007.2
20260505070516 89 331 4.0 20.0 0.00 0.00 0.00 74 1007.3
20260505070003 89 24 0.0 20.0 0.00 0.00 0.00 75 1007.4
20260505065507 89 18 7.0 17.0 0.00 0.00 0.00 74 1007.3
20260505064947 90 323 13.0 17.0 0.00 0.00 0.00 74 1007.2
20260505064447 90 319 2.0 15.0 0.00 0.00 0.00 74 1007.5
20260505063929 89 8 9.0 15.0 0.00 0.00 0.00 74 1007.4
20260505063423 89 312 6.0 13.0 0.00 0.00 0.00 73 1007.6
20260505062917 89 0 0.0 15.0 0.00 0.00 0.00 74 1007.7
20260505062414 89 5 0.0 17.0 0.00 0.00 0.00 74 1007.7
20260505061902 89 308 12.0 17.0 0.00 0.00 0.00 74 1007.4
20260505061723 89 313 13.0 17.0 0.00 0.00 0.00 74 1007.5
20260505060830 89 13 3.0 13.0 0.00 0.00 0.00 73 1007.4
20260505060325 89 26 0.0 13.0 0.00 0.00 0.00 74 1007.7
20260505055815 89 37 0.0 20.0 0.00 0.00 0.00 73 1007.4
20260505055257 90 46 1.0 20.0 0.00 0.00 0.00 74 1007.7
20260505054759 90 7 10.0 20.0 0.00 0.00 0.00 73 1007.7
20260505054241 91 203 11.0 17.0 0.00 0.00 0.00 71 1007.7
20260505053730 92 37 1.0 17.0 0.00 0.00 0.00 71 1007.8
20260505053227 94 272 2.0 13.0 0.00 0.00 0.00 68 1007.9
20260505052706 92 5 2.0 10.0 0.00 0.00 0.00 70 1008.1
20260505052146 92 293 2.0 17.0 0.00 0.00 0.00 70 1008.0
20260505051726 92 60 1.0 17.0 0.00 0.00 0.00 71 1008.0
20260505051637 91 333 8.0 17.0 0.00 0.00 0.00 72 1007.9
20260505051056 91 38 9.0 17.0 0.00 0.00 0.00 71 1008.1
20260505050113 90 355 6.0 15.0 0.00 0.00 0.00 71 1008.4
20260505041507 90 321 2.0 15.0 0.00 0.00 0.00 71 1008.9
20260505041000 91 292 4.0 17.0 0.00 0.00 0.00 71 1008.8
20260505040441 91 309 9.0 17.0 0.00 0.00 0.00 71 1008.9
20260505035937 91 2 6.0 20.0 0.00 0.00 0.00 70 1008.9
20260505035423 92 191 8.0 20.0 0.00 0.00 0.00 69 1008.9
20260505034915 92 114 6.0 15.0 0.00 0.00 0.00 68 1008.9
20260505034406 92 215 11.0 20.0 0.00 0.00 0.00 70 1009.2
20260505033856 90 178 7.0 20.0 0.00 0.00 0.00 71 1009.1
20260505033400 89 287 6.0 20.0 0.00 0.00 0.00 71 1009.4
20260505032845 89 227 12.0 17.0 0.00 0.00 0.00 72 1009.4
20260505032334 89 298 6.0 15.0 0.00 0.00 0.00 73 1009.4
20260505031828 89 166 3.0 13.0 0.00 0.00 0.00 72 1009.4
20260505031326 88 7 2.0 20.0 0.00 0.00 0.00 73 1009.5
20260505030816 89 195 9.0 20.0 0.00 0.00 0.00 74 1009.5
20260505030310 88 220 3.0 10.0 0.00 0.00 0.00 73 1009.6
20260505025806 88 260 5.0 10.0 0.00 0.00 0.00 74 1009.5
20260505025245 88 25 0.0 10.0 0.00 0.00 0.00 74 1009.9
20260505024732 87 352 2.0 15.0 0.00 0.00 0.00 75 1009.7
20260505024223 87 27 0.0 15.0 0.00 0.00 0.00 76 1009.8
20260505023719 88 76 1.0 20.0 0.00 0.00 0.00 75 1009.8
20260505023540 87 205 2.0 25.0 0.00 0.00 0.00 75 1009.8
20260505022715 87 208 16.0 30.0 0.00 0.00 0.00 77 1009.7
20260505022200 89 109 7.0 30.0 0.00 0.00 0.00 75 1009.9
20260505021643 89 23 2.0 15.0 0.00 0.00 0.00 74 1009.8
20260505021132 86 12 2.0 15.0 0.00 0.00 0.00 76 1009.8
20260505020627 87 355 8.0 15.0 0.00 0.00 0.00 75 1010.0
20260505020113 86 17 2.0 15.0 0.00 0.00 0.00 77 1010.1
20260505020001 86 335 2.0 15.0 0.00 0.00 0.00 77 1010.1
20260505015059 85 38 3.0 15.0 0.00 0.00 0.00 78 1010.0
20260505015002 86 211 2.0 15.0 0.00 0.00 0.00 78 1010.2
20260505014431 86 16 4.0 15.0 0.00 0.00 0.00 78 1010.1
20260505013534 86 4 5.0 15.0 0.00 0.00 0.00 78 1010.1
20260505013025 87 334 11.0 15.0 0.00 0.00 0.00 77 1010.3
20260505012519 87 11 1.0 13.0 0.00 0.00 0.00 76 1010.2
20260505012018 87 347 5.0 15.0 0.00 0.00 0.00 76 1010.2
20260505011520 89 336 8.0 13.0 0.00 0.00 0.00 75 1009.9
20260505011000 88 39 0.0 17.0 0.00 0.00 0.00 75 1010.2
20260505010436 87 3 9.0 17.0 0.00 0.00 0.00 77 1010.2
20260505005931 86 147 1.0 17.0 0.00 0.00 0.00 77 1010.3
20260505005428 87 32 5.0 17.0 0.00 0.00 0.00 76 1010.4
20260505004924 87 28 0.0 17.0 0.00 0.00 0.00 76 1010.3
20260505004415 87 6 2.0 15.0 0.00 0.00 0.00 76 1010.2
20260505003908 87 5 0.0 13.0 0.00 0.00 0.00 76 1010.4
20260505003402 87 195 9.0 17.0 0.00 0.00 0.00 76 1010.4
20260505002856 87 168 8.0 17.0 0.00 0.00 0.00 76 1010.4
20260505002335 87 224 7.0 15.0 0.00 0.00 0.00 77 1010.3
20260505001839 87 20 2.0 10.0 0.00 0.00 0.00 73 1010.1
20260505001826 87 319 10.0 13.0 0.00 0.00 0.00 74 1010.2
20260505000810 86 46 1.0 10.0 0.00 0.00 0.00 74 1010.2
20260505000713 86 38 0.0 10.0 0.00 0.00 0.00 74 1010.2
20260504235748 86 21 4.0 10.0 0.00 0.00 0.00 74 1010.3
20260504235237 87 347 5.0 8.0 0.00 0.00 0.00 75 1010.1
20260504234728 88 51 0.0 0.0 0.00 0.00 0.00 73 1010.4
20260504234223 87 39 0.0 8.0 0.00 0.00 0.00 74 1010.2
20260504233717 86 34 0.0 13.0 0.00 0.00 0.00 75 1010.2
20260504233213 85 157 4.0 13.0 0.00 0.00 0.00 77 1010.1
20260504232649 85 221 3.0 13.0 0.00 0.00 0.00 78 1010.0
20260504232138 85 207 3.0 8.0 0.00 0.00 0.00 78 1010.1
20260504231629 86 41 0.0 8.0 0.00 0.00 0.00 76 1010.3
20260504231135 85 63 2.0 8.0 0.00 0.00 0.00 77 1010.2
20260504231020 84 48 0.0 10.0 0.00 0.00 0.00 78 1010.0
20260504230111 85 175 1.0 8.0 0.00 0.00 0.00 78 1010.0
20260504225556 85 74 0.0 8.0 0.00 0.00 0.00 77 1010.0
20260504225031 85 32 0.0 5.0 0.00 0.00 0.00 78 1010.2
20260504224523 84 41 0.0 2.0 0.00 0.00 0.00 77 1009.9
20260504224031 85 22 0.0 0.0 0.00 0.00 0.00 76 1010.1
20260504223508 84 19 0.0 0.0 0.00 0.00 0.00 78 1009.9
20260504222946 85 42 0.0 0.0 0.00 0.00 0.00 77 1009.9
20260504222438 84 35 0.0 0.0 0.00 0.00 0.00 78 1009.8
20260504222047 83 32 0.0 0.0 0.00 0.00 0.00 79 1009.9
20260504220913 82 17 0.0 0.0 0.00 0.00 0.00 80 1009.6
20260504220804 82 35 0.0 0.0 0.00 0.00 0.00 81 1009.5
20260504215854 81 25 0.0 0.0 0.00 0.00 0.00 82 1009.5
20260504215347 81 25 0.0 0.0 0.00 0.00 0.00 82 1009.3
20260504214840 81 27 0.0 2.0 0.00 0.00 0.00 82 1009.4
20260504214334 81 28 0.0 2.0 0.00 0.00 0.00 81 1009.5
20260504214256 81 28 0.0 0.0 0.00 0.00 0.00 81 1009.7
20260504213711 81 29 0.0 0.0 0.00 0.00 0.00 82 1009.8
20260504212810 81 20 0.0 0.0 0.00 0.00 0.00 81 1009.5
20260504212304 81 15 0.0 0.0 0.00 0.00 0.00 81 1009.3
20260504211743 82 26 0.0 0.0 0.00 0.00 0.00 81 1009.4
20260504211233 82 20 0.0 0.0 0.00 0.00 0.00 81 1009.3
20260504211216 81 21 0.0 2.0 0.00 0.00 0.00 81 1009.2
20260504210609 81 16 0.0 2.0 0.00 0.00 0.00 81 1009.4
20260504205713 82 26 0.0 2.0 0.00 0.00 0.00 81 1009.3
20260504205159 82 20 0.0 2.0 0.00 0.00 0.00 81 1009.3
20260504205038 82 36 0.0 0.0 0.00 0.00 0.00 81 1009.1
20260504204145 82 28 0.0 2.0 0.00 0.00 0.00 81 1009.0
20260504204023 82 15 0.0 8.0 0.00 0.00 0.00 81 1009.2
20260504203131 82 28 0.0 8.0 0.00 0.00 0.00 81 1009.1
20260504203010 82 33 0.0 8.0 0.00 0.00 0.00 81 1008.9
20260504202113 82 25 1.0 8.0 0.00 0.00 0.00 81 1009.2
20260504202039 82 17 3.0 5.0 0.00 0.00 0.00 80 1009.0
20260504201047 82 44 2.0 8.0 0.00 0.00 0.00 80 1009.0
20260504200542 82 13 0.0 8.0 0.00 0.00 0.00 80 1009.2
20260504200419 82 8 0.0 0.0 0.00 0.00 0.00 81 1008.6
20260504195528 82 68 0.0 0.0 0.00 0.00 0.00 81 1008.9
20260504195349 82 26 0.0 0.0 0.00 0.00 0.00 81 1008.8
20260504194504 82 28 0.0 5.0 0.00 0.00 0.00 81 1008.8
20260504193956 82 182 1.0 5.0 0.00 0.00 0.00 80 1008.7
20260504193456 82 359 4.0 5.0 0.00 0.00 0.00 80 1008.9
20260504192940 82 20 0.0 5.0 0.00 0.00 0.00 80 1008.5
20260504192437 82 18 0.0 2.0 0.00 0.00 0.00 80 1008.9
20260504192312 82 13 1.0 5.0 0.00 0.00 0.00 80 1009.0
20260504191423 82 30 0.0 5.0 0.00 0.00 0.00 80 1009.2
20260504190910 82 29 0.0 0.0 0.00 0.00 0.00 80 1009.0
20260504190731 82 25 0.0 2.0 0.00 0.00 0.00 80 1008.6
20260504185856 82 27 0.0 2.0 0.00 0.00 0.00 80 1008.9
20260504185348 83 17 0.0 0.0 0.00 0.00 0.00 80 1008.9
20260504184842 83 29 0.0 2.0 0.00 0.00 0.00 80 1009.1
20260504184324 83 55 1.0 5.0 0.00 0.00 0.00 80 1009.2
20260504184159 83 48 1.0 5.0 0.00 0.00 0.00 80 1009.0
20260504183303 83 30 0.0 0.0 0.00 0.00 0.00 80 1009.2
20260504182757 83 154 0.0 0.0 0.00 0.00 0.00 80 1009.4
20260504182239 83 33 0.0 0.0 0.00 0.00 0.00 80 1009.4
20260504181730 83 53 0.0 2.0 0.00 0.00 0.00 80 1009.2
20260504181224 83 8 0.0 2.0 0.00 0.00 0.00 80 1009.1
20260504180659 82 27 0.0 8.0 0.00 0.00 0.00 80 1009.3
20260504180154 83 358 0.0 10.0 0.00 0.00 0.00 80 1009.4
20260504175643 83 350 0.0 10.0 0.00 0.00 0.00 80 1009.2
20260504175140 83 60 0.0 13.0 0.00 0.00 0.00 80 1009.2
20260504174627 83 346 3.0 13.0 0.00 0.00 0.00 80 1009.4
20260504174509 83 334 3.0 10.0 0.00 0.00 0.00 79 1009.3
20260504173617 83 24 1.0 10.0 0.00 0.00 0.00 79 1009.4
20260504173602 83 328 3.0 10.0 0.00 0.00 0.00 78 1009.5
20260504172556 83 22 0.0 5.0 0.00 0.00 0.00 77 1009.4
20260504172051 83 4 0.0 10.0 0.00 0.00 0.00 77 1009.6
20260504171544 83 19 2.0 10.0 0.00 0.00 0.00 76 1009.6
20260504171032 83 20 2.0 10.0 0.00 0.00 0.00 76 1009.6
20260504170522 84 358 1.0 5.0 0.00 0.00 0.00 75 1009.9
20260504160341 85 29 0.0 2.0 0.00 0.00 0.00 72 1010.4
20260504150656 85 33 0.0 5.0 0.00 0.00 0.00 70 1011.0
20260504150154 85 32 0.0 8.0 0.00 0.00 0.00 70 1010.8
20260504141034 85 36 0.0 8.0 0.00 0.00 0.00 68 1010.4
20260504140517 85 15 0.0 5.0 0.00 0.00 0.00 68 1010.3
20260504130821 87 38 0.0 8.0 0.00 0.00 0.00 65 1009.8
20260504130315 87 61 4.0 8.0 0.00 0.00 0.00 65 1009.7
20260504130247 87 30 0.0 5.0 0.00 0.00 0.00 65 1009.8
20260504120126 88 66 6.0 17.0 0.00 0.00 0.00 66 1009.6
20260504110446 89 346 2.0 17.0 0.00 0.00 0.00 64 1009.1
20260504100249 91 58 0.0 13.0 0.00 0.00 0.00 62 1008.1
20260504081939 94 346 5.0 17.0 0.00 0.00 0.00 56 1007.9
20260504081424 94 26 5.0 17.0 0.00 0.00 0.00 57 1007.7
20260504080922 95 355 0.0 20.0 0.00 0.00 0.00 54 1007.7
20260504080748 95 73 7.0 20.0 0.00 0.00 0.00 55 1007.6